STARLINK D

Last updated on Wed Jul 02 2025 00:02:08 GMT+0000 (Coordinated Universal Time)

1 64597U 25137D 25182.75001157 -.00818239 21823-3 -21172-2 0 9990 2 64597 53.1566 79.6749 0000637 123.0212 150.4976 15.94391399 2050

Satellite not in orbit